Regional Weather Roundup
Issued by NWS Kansas City/Pleasant Hill, MO

Home | Current Version | Previous Version | Text Only | Print | Product List | Glossary On
Versions: 1 2 3 4 5 6 7 8 9 10 11 12 13 14 15 16 17 18 19 20 21 22 23 24 25 26 27 28 29 30 31 32 33 34 35 36 37 38 39 40 41 42 43 44 45 46 47 48 49 50
310
ASUS43 KEAX 190810
RWREAX

WEATHER ROUNDUP FOR EASTERN KANSAS AND NORTHWEST MISSOURI
NATIONAL WEATHER SERVICE KANSAS CITY/PLEASANT HILL MO
200 AM CST THU JAN 19 2017

KSZ040-057-103>105-MOZ028-029-037-043-190900-
...KANSAS CITY METROPOLITAN AREA...

CITY           SKY/WX    TMP DP  RH WIND       PRES   REMARKS
K.C. INTL      CLOUDY    43  37  79 SE6       29.91F
K.C. DOWNTOWN  CLOUDY    45  39  79 E3        29.91F
LEES SUMMIT    CLOUDY    42  38  85 SE6       29.92F
OLATHE - IXD   CLOUDY    42  41  96 SE6       29.91F FOG
OLATHE - OJC   CLOUDY    41  41 100 SE5       29.91S FOG
LAWRENCE       CLOUDY    42  40  92 E9        29.90F

$$

MOZ001>008-011>017-020>025-030>033-038>040-044>046-053-054-190900-
...NORTHERN AND CENTRAL MISSOURI...

CITY           SKY/WX    TMP DP  RH WIND       PRES   REMARKS
ST. JOSEPH     CLOUDY    38  37  97 CALM      29.91F
MOSBY          CLOUDY    36  36 100 CALM      29.92F
WARRENSBURG    CLOUDY    43  37  81 CALM      29.94S
WHITEMAN AFB   CLOUDY    46  46 100 SE3       29.92S
CLINTON        CLOUDY    46  45  93 CALM      29.94S
SEDALIA        CLOUDY    48  43  82 SE6       29.95F
WARSAW         NOT AVBL
CHILLICOTHE      N/A     36  35  96 CALM      29.95F
KIRKSVILLE     CLOUDY    36  34  92 SE6       29.95F WCI  31

$$

MOZ041-047>049-056>058-063>065-088>090-097-190900-
...EASTERN AND SOUTHERN MISSOURI...

CITY           SKY/WX    TMP DP  RH WIND       PRES   REMARKS
ST. LOUIS INTL CLOUDY    44  38  79 SE6       30.02F
SPIRIT OF STL  CLOUDY    43  39  86 VRB3      30.02S
COLUMBIA       LGT RAIN  43  42  97 SE5       29.96F FOG
JEFFERSON CITY CLOUDY    44  42  93 E6        29.98F
ROLLA          LGT RAIN  42  41  96 SE7       29.95F FOG
OSAGE BEACH    CLOUDY    43  42  97 SE3       29.96F
SPRINGFIELD    CLOUDY    43  42  97 S12       29.92S
BRANSON        CLOUDY    41  41 100 E5        29.95F FOG
JOPLIN         CLOUDY    47  45  93 S6        29.92F
WEST PLAINS    FOG       41  41 100 SE5       29.99F VSB 3/4

$$

IAZ060-094-KSZ022-034>040-054-083-096-NEZ052-066-093-190900-
...KANSAS...SOUTHEAST NEBRASKA AND IOWA...

CITY           SKY/WX    TMP DP  RH WIND       PRES   REMARKS
TOPEKA         CLOUDY    41  37  86 NE5       29.89F
MANHATTAN      CLOUDY    45  38  76 SE5       29.85F
EMPORIA        CLOUDY    44  41  89 S8        29.87F
CHANUTE        FOG       46  45  96 S7        29.90F VSB 1/2
WICHITA        CLOUDY    44  40  85 SE10      29.84F
OMAHA          PTCLDY    36  31  82 S12       29.86S WCI  28
LINCOLN        CLEAR     35  32  88 S10       29.83F WCI  27
FALLS CITY     CLOUDY    37  35  92 E3        29.88F
LAMONI         MOCLDY    34  34 100 SE5       29.91F FOG     WCI  30
DES MOINES     FOG       37  36  96 S7        29.93S VSB 1   WCI  32

$$





USA.gov is the U.S. government's official web portal to all federal, state and local government web resources and services.